GW0151 Weather Reports


time (UTC)temp
F
wind
direction
speed
knots
gust
knots
rain 1hr
in
rain 24hr
in
rain mn
in
humidity
%
barometer
mb
20260504214549 71 226 10.4 21.7 0.00 0.00 0.00 37 1014.3
20260504213048 72 252 8.7 16.5 0.00 0.00 0.00 36 1014.3
20260504211540 72 234 8.7 16.5 0.00 0.00 0.00 37 1014.4
20260504210042 72 232 10.4 18.2 0.00 0.00 0.00 38 1014.4
20260504204619 72 258 9.6 17.4 0.00 0.00 0.00 38 1014.4
20260504203043 72 215 4.3 17.4 0.00 0.00 0.00 38 1014.4
20260504201542 72 213 9.6 14.8 0.00 0.00 0.00 39 1014.5
20260504200042 72 248 9.6 17.4 0.00 0.00 0.00 38 1015.0
20260504194546 73 214 7.8 14.8 0.00 0.00 0.00 36 1015.1
20260504193036 72 221 6.1 13.9 0.00 0.00 0.00 37 1015.2
20260504191535 72 246 5.2 10.4 0.00 0.00 0.00 35 1015.3
20260504190054 71 220 5.2 9.6 0.00 0.00 0.00 37 1015.5
20260504184555 71 360 3.5 10.4 0.00 0.00 0.00 39 1015.7
20260504183037 71 360 2.6 9.6 0.00 0.00 0.00 37 1015.9
20260504181544 72 232 6.1 12.2 0.00 0.00 0.00 36 1016.1
20260504180036 72 190 5.2 11.3 0.00 0.00 0.00 36 1016.0
20260504174545 69 243 4.3 12.2 0.00 0.00 0.00 38 1016.1
20260504173036 68 41 2.6 9.6 0.00 0.00 0.00 38 1016.0
20260504171543 67 67 7.8 13.0 0.00 0.00 0.00 38 1016.0
20260504081541 35 0 0.0 0.0 0.00 0.00 0.00 91 1017.4
20260504044544 40 0 0.0 0.9 0.00 0.00 0.00 80 1017.7
20260504043040 41 0 0.0 0.0 0.00 0.00 0.00 79 1017.4
20260504041538 41 31 0.0 0.9 0.00 0.00 0.00 78 1017.5
20260504040041 42 0 0.0 0.0 0.00 0.00 0.00 76 1017.5
20260504034541 42 0 0.0 0.0 0.00 0.00 0.00 74 1017.3
20260504033043 43 0 0.0 1.7 0.00 0.00 0.00 73 1017.2
20260504031541 44 31 0.9 3.5 0.00 0.00 0.00 72 1017.2
20260504030042 44 0 0.0 0.9 0.00 0.00 0.00 68 1017.3
20260504024539 45 0 0.0 1.7 0.00 0.00 0.00 66 1017.5
20260504023044 46 275 0.0 1.7 0.00 0.00 0.00 63 1017.5
20260504021539 47 0 0.0 1.7 0.00 0.00 0.00 62 1017.4
20260504020039 48 275 0.9 2.6 0.00 0.00 0.00 59 1017.2
20260504014552 50 0 0.0 2.6 0.00 0.00 0.00 56 1016.9
20260504013038 51 0 0.0 2.6 0.00 0.00 0.00 51 1016.6
20260504011544 52 0 0.0 3.5 0.00 0.00 0.00 49 1016.5
20260504010042 52 32 1.7 4.3 0.00 0.00 0.00 50 1016.4
20260504004548 54 90 2.6 6.1 0.00 0.00 0.00 43 1016.3
20260504003050 55 63 2.6 6.1 0.00 0.00 0.00 43 1016.3
20260504001545 55 44 2.6 7.0 0.00 0.00 0.00 41 1016.1
20260504000047 56 74 3.5 8.7 0.00 0.00 0.00 40 1016.0
20260503234546 58 45 1.7 8.7 0.00 0.00 0.00 39 1016.0
20260503233044 59 49 2.6 9.6 0.00 0.00 0.00 36 1015.9
20260503231545 60 28 6.1 9.6 0.00 0.00 0.00 34 1015.9
20260503230045 60 92 2.6 7.8 0.00 0.00 0.00 32 1015.8
20260503224543 61 5 4.3 9.6 0.00 0.00 0.00 31 1015.8
20260503223039 62 88 4.3 9.6 0.00 0.00 0.00 31 1015.8
20260503221537 62 53 4.3 11.3 0.00 0.00 0.00 27 1015.8
20260503220050 62 27 0.9 9.6 0.00 0.00 0.00 29 1015.9